EC1DIR-13 Weather Reports


time (UTC)temp
C
wind
direction
speed
KPH
gust
KPH
rain 1hr
cm
rain 24hr
cm
rain mn
cm
humidity
%
barometer
mb
20260508054502 10 40 0.0 0.0 0.00 0.00 0.00 55 1012.6
20260508053102 10 19 0.0 3.2 0.00 0.00 0.00 54 1012.8
20260508051603 10 13 0.0 4.8 0.00 0.00 0.00 54 1012.5
20260508050100 10 359 0.0 1.6 0.00 0.00 0.00 55 1012.8
20260508044602 10 11 0.0 0.0 0.00 0.00 0.00 55 1012.6
20260508043104 10 8 0.0 0.0 0.00 0.00 0.00 55 1012.3
20260508041559 10 33 0.0 0.0 0.00 0.00 0.00 55 1012.2
20260508040056 10 13 0.0 0.0 0.00 0.00 0.00 54 1012.1
20260508034600 10 31 0.0 0.0 0.00 0.00 0.00 54 1012.1
20260508033056 10 29 0.0 0.0 0.00 0.00 0.00 55 1012.2
20260508031557 10 313 0.0 8.0 0.00 0.00 0.00 55 1012.3
20260508030055 9 280 0.0 3.2 0.00 0.00 0.00 56 1012.0
20260508024552 8 12 0.0 3.2 0.00 0.00 0.00 57 1011.8
20260508023052 9 18 0.0 11.3 0.00 0.00 0.00 56 1011.9
20260508021553 9 359 6.4 20.9 0.00 0.00 0.00 56 1011.8
20260508020048 9 16 0.0 4.8 0.00 0.00 0.00 53 1012.2
20260508014553 9 52 0.0 4.8 0.00 0.00 0.00 54 1012.2
20260508013046 9 16 0.0 8.0 0.00 0.00 0.00 53 1012.6
20260508011546 9 27 0.0 4.8 0.00 0.00 0.00 52 1012.5
20260508010041 10 8 0.0 0.0 0.00 0.00 0.00 51 1012.7
20260508004539 10 19 0.0 0.0 0.00 0.00 0.00 51 1012.8
20260508003054 10 14 0.0 0.0 0.00 0.00 0.00 51 1013.1
20260508001535 10 38 0.0 1.6 0.00 0.00 0.00 50 1013.3
20260508000037 10 22 0.0 0.0 0.00 0.00 0.00 49 1013.4
20260507234532 10 11 0.0 4.8 0.00 0.00 0.00 49 1013.5
20260507233035 10 359 0.0 0.0 0.00 0.00 0.00 49 1013.6
20260507231531 10 4 0.0 0.0 0.00 0.00 0.00 49 1014.0
20260507230029 10 8 0.0 0.0 0.00 0.00 0.00 50 1014.0
20260507224527 10 13 0.0 0.0 0.00 0.00 0.00 49 1014.0
20260507223025 10 10 0.0 0.0 0.00 0.00 0.00 48 1013.9
20260507221526 10 22 0.0 0.0 0.00 0.00 0.00 48 1014.1
20260507220021 11 23 0.0 1.6 0.00 0.00 0.00 49 1014.0
20260507214520 11 39 0.0 1.6 0.00 0.00 0.00 49 1014.0
20260507213018 11 79 0.0 0.0 0.00 0.00 0.00 47 1013.9
20260507211517 11 80 0.0 0.0 0.00 0.00 0.00 46 1013.7
20260507210015 12 43 0.0 0.0 0.00 0.00 0.00 45 1013.6
20260507204514 12 44 0.0 0.0 0.00 0.00 0.00 44 1013.4
20260507203015 12 25 0.0 0.0 0.00 0.00 0.00 43 1013.1
20260507201511 12 25 0.0 0.0 0.00 0.00 0.00 41 1012.8
20260507200009 12 23 0.0 0.0 0.00 0.00 0.00 40 1012.7
20260507194508 13 12 0.0 0.0 0.00 0.00 0.00 40 1012.5
20260507193007 13 19 0.0 0.0 0.00 0.00 0.00 39 1012.2
20260507191509 13 48 0.0 0.0 0.00 0.00 0.00 37 1012.0
20260507190006 14 38 0.0 0.0 0.00 0.00 0.00 35 1011.8
20260507184511 14 25 0.0 3.2 0.00 0.00 0.00 34 1011.5
20260507183005 15 340 0.0 1.6 0.00 0.00 0.00 33 1011.3
20260507181506 15 29 0.0 0.0 0.00 0.00 0.00 33 1011.2
20260507180008 15 70 0.0 0.0 0.00 0.00 0.00 33 1011.3
20260507174504 15 94 0.0 1.6 0.00 0.00 0.00 32 1011.1
20260507173004 16 66 0.0 9.7 0.00 0.00 0.00 29 1011.1
20260507171505 15 61 0.0 11.3 0.00 0.00 0.00 31 1011.1
20260507170002 15 95 0.0 14.5 0.00 0.00 0.00 30 1011.2
20260507164502 15 104 0.0 17.7 0.00 0.00 0.00 31 1011.1
20260507163001 16 88 0.0 8.0 0.00 0.00 0.00 33 1011.1
20260507161603 15 33 0.0 6.4 0.00 0.00 0.00 34 1011.3
20260507160109 15 74 0.0 12.9 0.00 0.00 0.00 34 1011.3
20260507154559 15 23 0.0 14.5 0.00 0.00 0.00 35 1011.1
20260507153101 15 73 0.0 17.7 0.00 0.00 0.00 34 1011.2
20260507151559 15 66 3.2 29.0 0.00 0.00 0.00 35 1011.1
20260507150057 15 121 3.2 22.5 0.00 0.00 0.00 37 1011.2
20260507144557 15 35 0.0 8.0 0.00 0.00 0.00 38 1011.2
20260507143055 15 60 1.6 17.7 0.00 0.00 0.00 42 1011.4
20260507141556 15 359 0.0 20.9 0.00 0.00 0.00 39 1011.4
20260507140106 15 60 0.0 9.7 0.00 0.00 0.00 36 1011.0
20260507134552 17 78 0.0 0.0 0.00 0.00 0.00 28 1010.9
20260507133051 17 168 0.0 0.0 0.00 0.00 0.00 26 1010.9
20260507131550 17 209 0.0 1.6 0.00 0.00 0.00 24 1010.9
20260507130049 17 224 0.0 3.2 0.00 0.00 0.00 23 1010.7
20260507124549 18 127 0.0 9.7 0.00 0.00 0.00 21 1010.7
20260507123048 18 338 0.0 0.0 0.00 0.00 0.00 24 1010.8
20260507121546 17 324 0.0 0.0 0.00 0.00 0.00 24 1010.7
20260507120043 18 90 0.0 1.6 0.00 0.00 0.00 23 1010.9
20260507114540 17 50 0.0 4.8 0.00 0.00 0.00 25 1011.2
20260507113040 17 69 0.0 3.2 0.00 0.00 0.00 29 1011.5
20260507111539 17 86 0.0 11.3 0.00 0.00 0.00 27 1011.7
20260507110033 17 87 0.0 1.6 0.00 0.00 0.00 30 1011.8
20260507104534 16 120 0.0 6.4 0.00 0.00 0.00 34 1012.0
20260507103029 15 78 0.0 4.8 0.00 0.00 0.00 38 1012.2
20260507101549 16 53 0.0 11.3 0.00 0.00 0.00 35 1012.3
20260507100033 16 45 0.0 9.7 0.00 0.00 0.00 38 1012.3
20260507094525 15 22 0.0 4.8 0.00 0.00 0.00 39 1012.3
20260507093030 15 62 0.0 1.6 0.00 0.00 0.00 39 1012.3
20260507091546 15 90 0.0 8.0 0.00 0.00 0.00 38 1012.2
20260507090023 15 62 0.0 0.0 0.00 0.00 0.00 38 1012.3
20260507084525 15 64 0.0 9.7 0.00 0.00 0.00 39 1012.3
20260507083021 15 65 0.0 9.7 0.00 0.00 0.00 40 1012.3
20260507081518 15 57 0.0 11.3 0.00 0.00 0.00 40 1012.3
20260507080012 13 69 0.0 4.8 0.00 0.00 0.00 1012.2
20260507074511 13 130 0.0 8.0 0.00 0.00 0.00 45 1012.3
20260507073008 12 90 0.0 3.2 0.00 0.00 0.00 45 1012.3
20260507071507 12 36 0.0 11.3 0.00 0.00 0.00 46 1012.2
20260507070002 12 99 0.0 8.0 0.00 0.00 0.00 46 1012.2
20260507064600 12 87 0.0 1.6 0.00 0.00 0.00 47 1012.2
20260507063101 12 83 0.0 4.8 0.00 0.00 0.00 46 1012.2
20260507061554 12 89 0.0 0.0 0.00 0.00 0.00 47 1012.2
20260507060052 12 84 0.0 0.0 0.00 0.00 0.00 47 1012.1